Погода Уля

Погода Уля : погода сейчас, прогноз погоды и архив. Всё, что Вы хотите узнать о погоде Уля!

Поиск расширенной информации на нашем сайте:

Другие новости

Новости СМИ2

Главная страница сайта

Новости сайта

03.07.2017

Напоминаем, что на нашем специализированном сайте Метеоцентр.Азия вы можете получить высокодетализированные автоматические прогнозы погоды по пунктам России, СНГ и мира в авиационном формате (включающие направление и скорость ветра, видимость, явления погоды, количество и форму облачности, нижнюю и верхнюю границу облачности).


Погода Уля - сегодня

Время (UTC), дата Ветер
(°,м/с) 
Видим.   Явления Облачность Т
(°С)
Тd
(°С)
f(%) Тe
(°С)
Pmin
(гПа)
dP
(гПа)
Po
(мм)
O2
(г/м3)
Тmin Tmax R s Состояние
почвы
18 14.06.18 тихо ()   20000 м    10/10 600 м 
[St]
+5.9 +3.8 86 +6  1021.8  0.1  766  302           
00 15.06.18 230 (ЮЗ) 20000 м    8/6 600 м средняя 
[Sc|Ac trans]
+8.4 +5.5 82 +8  1020.6  -0.6  765  298           
03 15.06.18 200 (Ю) 20000 м    8/4 600 м средняя 
[Sc|Ac trans]
+9 +5.5 79 +7  1019.5  -1.1  764  297           
09 15.06.18 250 (З) 10-12{12}  20000 м    8/0 средняя, верхняя 
[Ac trans|Ci fib]
+8.5 +3.4 70 +6  1015.6  -1.7  761  297    +9.8       
12 15.06.18 230 (ЮЗ) 8{12}  20000 м    8/0 средняя, верхняя 
[Ac trans|Ci fib]
+5.9 +1.4 73 +3  1014.8  -0.8  761  300           
15 15.06.18 320 (СЗ) 20000 м    8/0 средняя, верхняя 
[Ac trans|Ci fib]
+3 -1.5 72 +4  1014  -0.8  760  303           
18 15.06.18 тихо ()   20000 м    8/0 средняя, верхняя 
[Ac trans|Ci fib]
+2.8 -1.4 74 +3  1013.3  -0.7  760  303           
00 16.06.18 050 (СВ) 20000 м    8/0 средняя, верхняя 
[Ac trans|Ci fib]
+6.4 +1.7 72 +6  1012.2  -0.9  759  298           
03 16.06.18 200 (Ю) 20000 м    10/3 600 м средняя 
[Sc|Ac trans]
+7.2 +4.2 81 +5  1011.2  -1  758  297           
06 16.06.18 090 (В) 20000 м    9/3 600 м средняя 
[Sc|Ac trans]
+7.6 +5.4 86 +6  1010.6  -0.6  758  296           
12 16.06.18 110 (В) 20000 м    10/4 600 м средняя 
[Sc|Ac trans]
+5.9 +4 88 +7  1011  0.2  758  298           
15 16.06.18 тихо ()   20000 м    10/4 600 м средняя 
[Sc|Ac trans]
+5.8 +4.4 91 +6  1011.4  0.4  758  298           
18 16.06.18 тихо ()   20000 м    10/4 600 м средняя 
[Sc|Ac trans]
+5.2 +4 92 +5  1011.1  -0.3  758  299           
21 16.06.18 090 (В) 10 км  слаб. морось  10/10 600 м 
[St]
+6.3 +5.2 93 +6  1012  0.9  759  298  +5.1    0.0    сухая 
00 17.06.18 090 (В) 10 км  слаб. морось  10/10 600 м 
[St]
+7.1 +6 93 +8  1012.4  0.4  759  297           
03 17.06.18 070 (В) 10 км  слаб. морось  10/10 600 м 
[St]
+8 +7.1 94 +8  1012.9  0.5  759  296           
06 17.06.18 050 (СВ) 10 км  слаб. морось  10/10 600 м 
[St]
+7.8 +7.2 96 +9  1013  0.1  759  296           
12 17.06.18 020 (С) 10 км  {морось}  10/10 600 м 
[St]
+6.3 +5.4 94 +6  1013.6  0.4  760  298           
15 17.06.18 тихо ()   10 км    10/10 600 м 
[St]
+5.1 +4.2 94 +5  1013.5  -0.1  760  300           
18 17.06.18 тихо ()   10 км  слаб. морось  10/10 600 м 
[St]
+4.7 +4 95 +5  1013.7  0.2  760  300           
21 17.06.18 020 (С) 10 км  {морось}  10/10 600 м 
[St]
+5.4 +4.7 95 +4  1014.2  0.5  760  300  +4.5    0.0    влажная 
00 18.06.18 020 (С) 20000 м  {морось}  9/9 600 м 
[St]
+8.3 +6.8 90 +7  1014.8  0.6  761  296           
03 18.06.18 020 (С) 20000 м    9/9 600 м 
[St]
+8.7 +6.3 85 +8  1014.7  -0.1  761  296           
06 18.06.18 050 (СВ) 20000 м    10/6 600 м средняя 
[Sc|Ac trans]
+7.9 +5.2 83 +8  1014.2  -0.5  760  297           
12 18.06.18 090 (В) 20000 м    10/10 600 м 
[Sc]
+6.4 +4.1 85 +7  1014.6  0.5  761  299           
Время (UTC), дата Ветер
(°,м/с) 
Видим.   Явления Облачность Т
(°С)
Тd
(°С)
f(%) Тe
(°С)
Pmin
(гПа)
dP
(гПа)
Po
(мм)
O2
(г/м3)
Тmin Tmax R s Состояние
почвы

Для получения пояснительной информации подведите курсор к названию столбца.

ПОГОДА Уля - архив

Всё, что Вы хотите узнать о погоде Уля - удобно и подробно!

Выберите нужную дату (начиная с 1 января 2015* года) и нажмите кнопку "Найти".
Будут отображены архивные сводки погоды по пункту Уля, начиная с указанной даты.


Отображать данные в формате CSV (для использования в таблицах Excel)


Внимание! Наш архив погоды предназначен исключительно для личного некоммерческого использования в познавательных целях. Если Вам необходимы официальные справки о состоянии погоды (для производственных, юридических, коммерческих и т.п. целей), обращайтесь в органы Росгидромета.

*Примечание: данная дата относится к архиву по метеостанциям СССР (Россия, СНГ, Балтия).
Архив по метеостанциям Зарубежной Европы и Азии (кроме Китая) хранится 10 дней, по другим регионам земного шара (Китай, Африка, Америка, Австралия, Океания) - 1 день.

Уля - район местоположения метеостанции


Название, широта, долгота, высота метеостанции:
Уля 58.8°ш. 141.7°д. 4 м над ур. моря [Российская Федерация]

Дополнительная информация

В oтличие oт бoльшинства пoгoдных сайтoв мы публикуем пoдрoбную метеoинфoрмацию в детальнoм прoфессиoнальнoм фoрмате.

Характеристики температуры и влажнoсти вoздуха измеряются на высoте 2 м в тени вдали oт зданий и деревьев.
Скoрoсть ветра измеряется на высoте 10 м (на урoвне рoста челoвека скoрoсть ветра ниже в 1.5-2 раза). Если метеoстанция нахoдится в гoрoде или в лесу, тo скoрoсть ветра занижена на 2-4 м/с пo сравнению с oткрытым местoм. Скoрoсть ветра над акватoриями крупных рек и oзёр, а также на вершинах хoлмoв на 2-5 м/с выше, чем в oбычных услoвиях.
Атмoсфернoе давление в разных тoчках местнoсти мoжет значительнo oтличаться oт давления на метеoстанции, в зависимoсти oт услoвий рельефа (при пoдъёме на 10 м давление пoнижается примернo на 1 мм рт.ст.).